Wetterstats.de || Aktuelle Messwerte || Aktuelle Wetterkarten NEU! || Radar / Satellit NEU! || Wetterarchiv || Langzeitwerte NEU! || Klim. Kenntage || Met. Ereignisse || Agrarwerte || Echtzeitwerte

Monatsübersicht für Februar 2020 Diagramm
 
Wetter Information zur Wetteranzeige
Zeitraffer
Tageslänge (hh:mm)
Höchsttemperatur in °C
Uhrzeit
Tiefsttemperatur in °C
Uhrzeit
Luftfeuchte (max., in %)
Uhrzeit
Luftfeuchte (min., in %)
Uhrzeit
Luftdruck (max., in hPa)
Uhrzeit
Luftdruck (min., in hPa)
Uhrzeit
Luftdruck (Ø, in hPa)
Regenrate (max, mm/h)
Uhrzeit
Niederschlag in mm
Verdunstung in mm
Solar in W/m² (Ø)
Solar in W/m² (max.)
UV-Index (max.)
Sonnenscheindauer (hh:mm)
Windrichtung (Ø)
Windstärke (Ø in km/h)
Windstärke (Ø in bft)
Windböe (max., in km/h)
Uhrzeit
Windböe (max., in bft)
Uhrzeit
Taupunkt (max., in °C)
Uhrzeit
Taupunkt (min., in °C)
Uhrzeit
Windchill (min., in °C)
Uhrzeit
Gewitterindex (max.)
Uhrzeit
Waldbrandindex (max.)
Uhrzeit
Graslandfeuerindex (max.)
Uhrzeit
Staubsturm-Index (max.)
Uhrzeit
01
Kein Zeitraffer vorhanden
09:06
12.9
11:45 Uhr
8.3
23:50 Uhr

93
16:55 Uhr
78
11:40 Uhr
1004.9
00:10 Uhr

998.0
17:15 Uhr
1001.4
2,400
12:30 Uhr
4,800
0.889
66
230
11:30 Uhr
0.8
11:30 Uhr

00:15:00
12,5
2
37,0
22:10 Uhr

5
9.8
17:40 Uhr
5.7
23:30 Uhr
2.6
23:55 Uhr
2
17:25 Uhr

00:00 Uhr

00:00 Uhr

00:00 Uhr
02
Kein Zeitraffer vorhanden
09:09
8.4
12:05 Uhr
5.3
23:50 Uhr

93
20:35 Uhr
77
04:40 Uhr
1005.4
10:05 Uhr

1001.6
00:15 Uhr
1003.8
2,400
12:45 Uhr
2,000
0.787
32
137
11:20 Uhr
0.5
11:20 Uhr

00:00:00
11,8
2
51,5
07:55 Uhr

6
5.8
00:10 Uhr
4.1
04:10 Uhr
-0.4
07:15 Uhr
0
00:05 Uhr

00:00 Uhr

00:00 Uhr

00:00 Uhr
03
Kein Zeitraffer vorhanden
09:13
8.7
14:00 Uhr
5.1
03:20 Uhr

95
07:00 Uhr
88
14:15 Uhr
1006.8
11:25 Uhr

1003.5
23:55 Uhr
1005.6
9,600
16:15 Uhr
4,000
0.533
70
348
13:20 Uhr
0.7
13:20 Uhr

00:25:00
7,7
2
33,8
16:50 Uhr

5
7.2
13:25 Uhr
4.2
01:15 Uhr
1.6
18:40 Uhr
0
00:05 Uhr

00:00 Uhr

00:00 Uhr

00:00 Uhr
04
Kein Zeitraffer vorhanden
09:17
6.7
14:00 Uhr
3.2
23:45 Uhr

92
00:05 Uhr
76
14:05 Uhr
1011.2
23:55 Uhr

998.0
05:00 Uhr
1003.9
2,400
05:00 Uhr
1,000
0.660
97
403
13:50 Uhr
0.8
12:35 Uhr

00:55:00
6,2
1
33,8
15:30 Uhr

5
5.3
00:05 Uhr
1.5
18:35 Uhr
0.1
22:15 Uhr
0
00:05 Uhr

00:00 Uhr

00:00 Uhr

00:00 Uhr
05
Kein Zeitraffer vorhanden
09:20
5.1
15:00 Uhr
1.1
17:55 Uhr

92
01:45 Uhr
71
15:10 Uhr
1030.9
15:50 Uhr

1011.3
00:05 Uhr
1025.8
2,400
00:05 Uhr
2,600
0.991
138
512
12:40 Uhr
0.9
11:45 Uhr

03:50:00
9,7
2
40,2
02:50 Uhr

5
2.0
03:05 Uhr
-1.6
17:40 Uhr
-7.3
04:05 Uhr
0
00:05 Uhr

00:00 Uhr

00:00 Uhr

00:00 Uhr
06
Kein Zeitraffer vorhanden
09:24
6.1
13:10 Uhr
1.4
00:10 Uhr

90
17:00 Uhr
82
13:40 Uhr
1029.6
00:05 Uhr

1025.0
14:45 Uhr
1026.3
0,000
00:05 Uhr
0,000
0.838
98
425
13:00 Uhr
0.9
11:55 Uhr

01:00:00
8,8
2
35,4
04:35 Uhr

5
3.4
12:55 Uhr
-1.0
00:10 Uhr
-4.3
00:35 Uhr
0
00:05 Uhr

00:00 Uhr

00:00 Uhr

00:00 Uhr
07
Kein Zeitraffer vorhanden
09:28
7.1
12:50 Uhr
4.3
23:50 Uhr

93
06:10 Uhr
84
15:00 Uhr
1029.4
11:25 Uhr

1026.2
00:25 Uhr
1028.2
2,400
03:35 Uhr
0,200
0.432
71
167
12:35 Uhr
0.6
12:10 Uhr

00:00:00
4,6
1
27,4
00:55 Uhr

4
5.0
11:55 Uhr
3.2
23:10 Uhr
1.3
21:50 Uhr
0
00:05 Uhr

00:00 Uhr

00:00 Uhr

00:00 Uhr
08
Kein Zeitraffer vorhanden
09:32
9.1
13:35 Uhr
1.3
07:30 Uhr

94
08:50 Uhr
66
13:45 Uhr
1027.7
00:05 Uhr

1020.7
23:50 Uhr
1023.7
0,000
00:05 Uhr
0,000
1.118
192
352
12:30 Uhr
1.0
11:30 Uhr

06:30:00
7,8
2
32,2
11:00 Uhr

5
3.7
13:00 Uhr
0.1
22:05 Uhr
-1.7
08:45 Uhr
0
00:05 Uhr

00:00 Uhr

00:00 Uhr

00:00 Uhr
09
Kein Zeitraffer vorhanden
09:35
11.7
13:40 Uhr
3.6
00:05 Uhr

85
22:55 Uhr
65
20:20 Uhr
1020.8
00:05 Uhr

991.5
23:55 Uhr
1010.5
2,400
21:20 Uhr
2,200
1.880
164
388
11:55 Uhr
1.1
11:55 Uhr

04:10:00
15,0
3
64,4
20:25 Uhr

8
6.0
13:40 Uhr
0.7
00:05 Uhr
-0.9
00:50 Uhr
0
00:05 Uhr

00:00 Uhr

00:00 Uhr

00:00 Uhr
10
Kein Zeitraffer vorhanden
09:38
13.2
02:55 Uhr
3.5
21:35 Uhr

89
04:55 Uhr
65
02:25 Uhr
995.8
18:55 Uhr

983.9
06:05 Uhr
989.6
14,400
04:00 Uhr
7,800
1.245
72
392
11:40 Uhr
1.0
11:40 Uhr

00:35:00
17,2
3
59,5
14:10 Uhr

7
8.2
03:45 Uhr
0.6
21:35 Uhr
-5.2
14:15 Uhr
0
00:05 Uhr

00:00 Uhr

00:00 Uhr

00:00 Uhr
11
Kein Zeitraffer vorhanden
09:42
6.4
13:15 Uhr
3.3
19:10 Uhr

86
00:50 Uhr
62
16:30 Uhr
1001.5
23:55 Uhr

986.9
02:45 Uhr
994.3
2,400
00:40 Uhr
0,200
1.600
89
239
12:20 Uhr
0.8
12:10 Uhr

00:10:00
19,5
3
59,5
14:15 Uhr

7
2.9
02:50 Uhr
-0.6
23:15 Uhr
-7.6
09:30 Uhr
0
00:05 Uhr

00:00 Uhr

00:00 Uhr

00:00 Uhr
12
Kein Zeitraffer vorhanden
09:46
6.1
13:40 Uhr
2.4
07:40 Uhr

79
07:45 Uhr
64
13:50 Uhr
1011.4
23:35 Uhr

1001.4
00:05 Uhr
1005.7
0,000
00:05 Uhr
0,000
1.524
80
257
13:30 Uhr
0.7
13:20 Uhr

00:30:00
17,7
3
51,5
01:50 Uhr

6
0.2
14:30 Uhr
-1.1
23:50 Uhr
-6.8
02:00 Uhr
0
00:05 Uhr

00:00 Uhr

00:00 Uhr

00:00 Uhr
13
Kein Zeitraffer vorhanden
09:50
7.1
13:25 Uhr
0.6
07:55 Uhr

86
23:40 Uhr
65
16:25 Uhr
1014.1
08:10 Uhr

1002.6
22:20 Uhr
1009.7
0,000
00:05 Uhr
0,000
1.270
155
387
13:15 Uhr
1.0
11:35 Uhr

04:20:00
10,9
2
35,4
21:20 Uhr

5
1.6
13:15 Uhr
-1.8
06:10 Uhr
-5.7
02:45 Uhr
0
00:05 Uhr

00:00 Uhr

00:00 Uhr

00:00 Uhr
14
Kein Zeitraffer vorhanden
09:54
5.4
13:55 Uhr
2.2
23:20 Uhr

91
08:00 Uhr
86
12:40 Uhr
1024.7
23:50 Uhr

1003.1
00:10 Uhr
1014.3
2,400
14:55 Uhr
0,600
0.279
66
176
10:35 Uhr
0.5
10:30 Uhr

00:05:00
3,7
1
17,7
02:40 Uhr

3
3.5
15:05 Uhr
0.7
23:25 Uhr
-0.3
09:10 Uhr
0
00:05 Uhr

00:00 Uhr

00:00 Uhr

00:00 Uhr
15
Kein Zeitraffer vorhanden
09:58
10.2
14:50 Uhr
0.1
04:50 Uhr

95
08:45 Uhr
72
14:30 Uhr
1024.9
02:15 Uhr

1014.9
23:55 Uhr
1021.2
2,400
03:10 Uhr
0,200
1.092
171
417
13:25 Uhr
1.0
11:15 Uhr

04:10:00
8,0
2
38,6
23:05 Uhr

5
5.8
13:25 Uhr
-1.2
04:50 Uhr
-0.2
08:00 Uhr
0
00:05 Uhr

00:00 Uhr

00:00 Uhr

00:00 Uhr


 
Wetter Information zur Wetteranzeige
Zeitraffer
Tageslänge (hh:mm)
Höchsttemperatur in °C
Uhrzeit
Tiefsttemperatur in °C
Uhrzeit
Luftfeuchte (max., in %)
Uhrzeit
Luftfeuchte (min., in %)
Uhrzeit
Luftdruck (max., in hPa)
Uhrzeit
Luftdruck (min., in hPa)
Uhrzeit
Luftdruck (Ø, in hPa)
Regenrate (max, mm/h)
Uhrzeit
Niederschlag in mm
Verdunstung in mm
Solar in W/m² (Ø)
Solar in W/m² (max.)
UV-Index (max.)
Sonnenscheindauer (hh:mm)
Windrichtung (Ø)
Windstärke (Ø in km/h)
Windstärke (Ø in bft)
Windböe (max., in km/h)
Uhrzeit
Windböe (max., in bft)
Uhrzeit
Taupunkt (max., in °C)
Uhrzeit
Taupunkt (min., in °C)
Uhrzeit
Windchill (min., in °C)
Uhrzeit
Gewitterindex (max.)
Uhrzeit
Waldbrandindex (max.)
Uhrzeit
Graslandfeuerindex (max.)
Uhrzeit
Staubsturm-Index (max.)
Uhrzeit
16
Kein Zeitraffer vorhanden
10:02
16.6
23:45 Uhr
7.2
00:05 Uhr

78
12:40 Uhr
36
22:35 Uhr
1015.3
00:05 Uhr

1001.6
21:45 Uhr
1008.4
2,400
11:30 Uhr
3,000
2.109
73
390
10:55 Uhr
1.1
10:55 Uhr

00:20:00
15,8
3
54,7
19:25 Uhr

7
6.0
14:20 Uhr
1.2
22:35 Uhr
1.7
00:45 Uhr
0
00:05 Uhr

00:00 Uhr

00:00 Uhr

00:00 Uhr
17
Kein Zeitraffer vorhanden
10:06
16.7
00:10 Uhr
7.1
21:45 Uhr

70
03:25 Uhr
36
00:05 Uhr
1013.3
11:15 Uhr

1002.0
00:05 Uhr
1010.7
0,000
00:05 Uhr
0,000
2.108
95
190
13:30 Uhr
0.8
13:30 Uhr

00:15:00
13,9
3
51,5
01:00 Uhr

6
5.7
01:50 Uhr
0.8
20:25 Uhr
0.5
23:10 Uhr
0
00:05 Uhr

00:00 Uhr

00:00 Uhr

00:00 Uhr
18
Kein Zeitraffer vorhanden
10:10
8.9
13:55 Uhr
4.7
23:10 Uhr

76
04:50 Uhr
49
15:00 Uhr
1018.1
18:05 Uhr

1013.0
00:05 Uhr
1016.1
2,400
04:10 Uhr
0,400
1.880
128
533
11:30 Uhr
1.3
11:30 Uhr

01:50:00
13,9
3
54,7
13:15 Uhr

7
2.6
09:30 Uhr
-1.7
15:00 Uhr
-1.8
10:45 Uhr
0
00:05 Uhr

00:00 Uhr

00:00 Uhr

00:00 Uhr
19
Kein Zeitraffer vorhanden
10:14
6.3
08:55 Uhr
3.1
23:30 Uhr

85
23:50 Uhr
65
08:55 Uhr
1017.2
22:50 Uhr

1009.2
11:05 Uhr
1012.8
4,800
22:50 Uhr
5,200
0.991
72
327
14:25 Uhr
0.7
14:05 Uhr

00:50:00
10,3
2
40,2
09:15 Uhr

5
2.7
13:50 Uhr
-1.0
02:45 Uhr
-2.9
19:45 Uhr
0
00:05 Uhr

00:00 Uhr

00:00 Uhr

00:00 Uhr
20
Kein Zeitraffer vorhanden
10:17
7.8
13:30 Uhr
1.3
07:35 Uhr

87
00:15 Uhr
64
10:45 Uhr
1019.7
08:50 Uhr

1008.3
23:55 Uhr
1016.5
0,000
00:05 Uhr
0,000
1.295
156
448
10:35 Uhr
1.1
10:35 Uhr

03:50:00
9,0
2
38,6
13:55 Uhr

5
2.8
18:40 Uhr
-2.0
07:40 Uhr
-1.5
02:50 Uhr
0
00:05 Uhr

00:00 Uhr

00:00 Uhr

00:00 Uhr
21
Kein Zeitraffer vorhanden
10:21
7.4
01:10 Uhr
3.9
06:25 Uhr

84
02:55 Uhr
63
17:15 Uhr
1023.5
18:05 Uhr

1006.2
02:50 Uhr
1017.4
4,800
03:15 Uhr
6,000
1.245
107
260
11:15 Uhr
1.0
12:00 Uhr

00:45:00
10,4
2
45,1
04:05 Uhr

6
3.2
03:55 Uhr
-0.6
20:00 Uhr
-2.1
03:25 Uhr
0
00:05 Uhr

00:00 Uhr

00:00 Uhr

00:00 Uhr
22
Kein Zeitraffer vorhanden
10:25
11.7
15:40 Uhr
5.1
07:40 Uhr

85
23:15 Uhr
50
13:35 Uhr
1022.8
00:05 Uhr

1010.3
14:00 Uhr
1015.1
7,200
20:10 Uhr
1,200
2.134
115
422
13:20 Uhr
1.3
11:55 Uhr

01:05:00
15,5
3
53,1
12:40 Uhr

7
5.4
20:10 Uhr
-0.3
07:40 Uhr
-1.0
09:35 Uhr
0
00:05 Uhr

00:00 Uhr

00:00 Uhr

00:00 Uhr
23
Kein Zeitraffer vorhanden
10:29
7.7
05:50 Uhr
4.1
23:05 Uhr

98
18:20 Uhr
71
06:50 Uhr
1013.4
01:55 Uhr

997.4
17:15 Uhr
1007.2
9,600
17:25 Uhr
17,200
0.762
54
113
08:40 Uhr
0.0
00:05 Uhr

00:00:00
10,7
2
46,7
21:45 Uhr

6
6.1
16:15 Uhr
2.5
06:50 Uhr
-1.0
00:30 Uhr
0
00:05 Uhr

00:00 Uhr

00:00 Uhr

00:00 Uhr
24
Kein Zeitraffer vorhanden
10:34
6.8
15:35 Uhr
3.8
03:25 Uhr

97
23:15 Uhr
76
15:35 Uhr
1018.4
09:25 Uhr

999.9
23:50 Uhr
1012.4
4,800
21:00 Uhr
5,800
0.991
110
362
10:30 Uhr
1.1
10:20 Uhr

00:35:00
9,8
2
45,1
00:15 Uhr

6
5.2
23:45 Uhr
1.5
01:10 Uhr
-2.3
06:45 Uhr
0
00:05 Uhr

00:00 Uhr

00:00 Uhr

00:00 Uhr
25
Kein Zeitraffer vorhanden
10:38
11.7
13:00 Uhr
3.0
23:50 Uhr

99
01:20 Uhr
61
16:45 Uhr
999.8
00:05 Uhr

992.2
23:45 Uhr
995.8
2,400
00:50 Uhr
1,400
1.422
174
628
12:45 Uhr
1.5
11:20 Uhr

02:45:00
11,3
2
38,6
16:25 Uhr

5
8.2
09:05 Uhr
-0.2
20:55 Uhr
-0.6
22:50 Uhr
0
00:05 Uhr

00:00 Uhr

00:00 Uhr

00:00 Uhr
26
Kein Zeitraffer vorhanden
10:42
3.8
10:15 Uhr
1.1
13:20 Uhr

98
13:30 Uhr
84
00:20 Uhr
999.0
23:55 Uhr

990.6
03:55 Uhr
993.3
2,400
02:55 Uhr
4,600
0.483
91
232
08:55 Uhr
0.7
09:10 Uhr

00:55:00
8,3
2
30,6
02:30 Uhr

5
2.8
10:15 Uhr
0.3
01:05 Uhr
-4.2
02:30 Uhr
0
00:05 Uhr

00:00 Uhr

00:00 Uhr

00:00 Uhr
27
Kein Zeitraffer vorhanden
10:45
5.7
13:40 Uhr
1.2
07:20 Uhr

98
04:55 Uhr
73
13:40 Uhr
1002.5
08:35 Uhr

997.7
17:55 Uhr
1000.1
2,400
01:55 Uhr
3,400
0.635
133
594
13:35 Uhr
1.4
13:35 Uhr

01:00:00
5,7
1
33,8
11:20 Uhr

5
2.6
11:15 Uhr
0.7
07:20 Uhr
-2.5
12:15 Uhr
0
00:05 Uhr

00:00 Uhr

00:00 Uhr

00:00 Uhr
28
Kein Zeitraffer vorhanden
10:49
7.1
16:05 Uhr
-0.2
05:00 Uhr

94
02:50 Uhr
67
15:45 Uhr
1013.4
18:50 Uhr

1000.4
00:00 Uhr
1009.6
0,000
00:00 Uhr
0,000
0.965
144
621
12:15 Uhr
1.8
12:00 Uhr

01:40:00
7,1
2
35,4
13:20 Uhr

5
2.5
12:10 Uhr
-1.2
05:00 Uhr
-3.9
08:45 Uhr
0
00:00 Uhr

00:00 Uhr

00:00 Uhr

00:00 Uhr
29
Kein Zeitraffer vorhanden
10:54
9.9
14:20 Uhr
1.6
07:35 Uhr

96
09:05 Uhr
77
21:15 Uhr
1010.9
00:00 Uhr

992.2
20:35 Uhr
999.1
2,400
07:05 Uhr
1,600
1.245
141
496
14:20 Uhr
1.5
12:15 Uhr

02:25:00
11,5
2
38,6
21:50 Uhr

5
6.5
14:20 Uhr
-1.1
02:05 Uhr
-4.9
07:50 Uhr
0
00:00 Uhr

00:00 Uhr

00:00 Uhr

00:00 Uhr
Stationsstandorte || Wetterblog || Wissenswertes || Downloads || Seitenhistorie || Partner || Impressum / Datenschutz